[[{"header":{"parameterUnit":"m.s-1","parameterCategory":2,"la1":30.2991,"la2":30.254,"lo1":-89.0895,"lo2":-89.0444,"dy":0.0017,"dx":0.0017,"nx":28,"ny":28,"refTime":"2024-02-08T03:00:00:Z","depth":"0","parameterNumber":2,"parameterNumberName":"U-component_of_CURRENTS"},"data":[0,0,0,0,0,0,0,0,0,0,0,0,0,0,0,0,0,0,0,0,0,0,0,0,0,0,0,0,0,0,0,0,0,0,0,0,0,0,0,0,0,0,0,0,0,0,0,0,0,0,0,0,0,0,0,0,0,0,-0.2698,-0.2698,0,-0.2735,-0.2735,-0.2735,-0.2712,-0.2711,-0.271,-0.2709,-0.2723,-0.2724,-0.2725,0,0,0,0,0,0,0,0,0,0,0,0,0,-0.2612,-0.2613,-0.2697,-0.2698,-0.2699,-0.2735,-0.2735,-0.2735,-0.2712,-0.2711,-0.271,-0.2708,-0.2722,-0.2724,-0.2725,0,0,0,0,0,0,0,0,0,0,0,0,0,-0.2647,-0.2614,-0.2697,-0.2693,-0.2693,-0.2735,-0.2735,-0.2735,-0.2712,-0.2711,-0.2709,-0.2708,-0.2722,-0.2724,-0.2726,-0.2764,0,0,-0.2731,-0.2732,0,0,0,0,0,0,0,0,-0.2645,-0.265,-0.2693,-0.2693,-0.2694,-0.2719,-0.271,-0.2745,-0.2712,-0.2703,-0.2709,-0.2707,-0.2722,-0.2724,-0.2731,-0.2765,-0.2766,-0.2731,-0.2732,-0.2733,-0.2734,0,0,0,0,0,0,0,-0.2643,-0.2648,-0.271,-0.2694,-0.2694,-0.2691,-0.2695,-0.2717,-0.2717,-0.2703,-0.2702,-0.271,-0.2721,-0.2729,-0.2731,-0.2766,-0.2731,-0.2733,-0.2734,-0.2735,-0.2811,-0.2812,0,0,0,0,0,0,-0.2644,-0.2646,-0.2709,-0.2711,-0.2668,-0.2694,-0.2698,-0.271,-0.2718,-0.2718,-0.2711,-0.2709,-0.2727,-0.2729,-0.2731,-0.2765,-0.2733,-0.2735,-0.2736,-0.281,-0.2811,-0.2812,0,0,0,0,0,0,-0.2642,-0.265,-0.2707,-0.2681,-0.2688,-0.2697,-0.2712,-0.2712,-0.2715,-0.2724,-0.2724,-0.2713,-0.2726,-0.2729,-0.2745,-0.2765,-0.2736,-0.2737,-0.2809,-0.281,-0.2812,-0.284,0,0,0,0,0,0,-0.264,-0.2649,-0.2655,-0.2681,-0.269,-0.2736,-0.2713,-0.2714,-0.2723,-0.272,-0.2726,-0.2726,-0.2725,-0.2742,-0.2747,-0.2767,-0.2739,-0.2808,-0.281,-0.2811,-0.2838,-0.2842,-0.2846,0,0,0,0,0,-0.2637,-0.2652,-0.2655,-0.2662,-0.2699,-0.2737,-0.2741,-0.2741,-0.2725,-0.2736,-0.2731,-0.2726,-0.2756,-0.2745,-0.275,-0.2771,-0.2807,-0.2809,-0.2811,-0.2836,-0.2841,-0.2845,0,0,0,0,0,0,-0.2615,-0.2653,-0.2655,-0.268,-0.2708,-0.2734,-0.274,-0.2744,-0.2751,-0.2741,-0.274,-0.2741,-0.2763,-0.2765,-0.2752,-0.2798,-0.2781,-0.2784,-0.2798,-0.2803,-0.2807,-0.28,-0.274,0,0,0,0,0,-0.2616,-0.2634,-0.2673,-0.269,-0.2704,-0.2722,-0.2734,-0.2741,-0.2754,-0.2754,-0.2759,-0.2765,-0.278,-0.2787,-0.2801,-0.283,-0.2809,-0.2846,-0.285,-0.2853,-0.2851,-0.2837,-0.2838,-0.2819,-0.2819,-0.2819,0,0,-0.2608,-0.2633,-0.2641,-0.2686,-0.27,-0.2736,-0.2725,-0.2749,-0.2774,-0.2757,-0.2779,-0.2781,-0.279,-0.2817,-0.2828,-0.2819,-0.2848,-0.2856,-0.2859,-0.2855,-0.2839,-0.284,-0.2842,-0.282,-0.282,-0.282,0,0,-0.2616,-0.2628,-0.2653,-0.2683,-0.2719,-0.2739,-0.2748,-0.278,-0.2784,-0.2816,-0.2805,-0.2812,-0.2844,-0.2848,-0.2855,-0.2892,-0.287,-0.2903,-0.2919,-0.2905,-0.2906,-0.2906,-0.2878,-0.2876,-0.2905,-0.2905,-0.2905,0,-0.2604,-0.2644,-0.2665,-0.2704,-0.2726,-0.2742,-0.2778,-0.2798,-0.283,-0.2838,-0.2825,-0.2854,-0.2858,-0.2885,-0.2893,-0.29,-0.2883,-0.2899,-0.2908,-0.2909,-0.2909,-0.288,-0.2877,-0.2906,-0.2906,-0.2906,-0.2906,0,-0.264,-0.2671,-0.2687,-0.2741,-0.2771,-0.28,-0.2839,-0.2861,-0.2866,-0.2883,-0.2904,-0.2902,-0.2915,-0.2923,-0.292,-0.2933,-0.2917,-0.2914,-0.2892,-0.2912,-0.2881,-0.2877,-0.2909,-0.2908,-0.2908,-0.2907,0,0,-0.2607,-0.2695,-0.2697,-0.2726,-0.279,-0.2816,-0.2864,-0.2908,-0.2924,-0.2945,-0.2958,-0.2979,-0.2965,-0.2971,-0.2965,-0.2952,-0.2936,-0.2935,-0.2933,-0.29,-0.2893,-0.284,-0.283,-0.2933,-0.2933,-0.2933,-0.2868,0,-0.2622,-0.2692,-0.2738,-0.2794,-0.2827,-0.2868,-0.2909,-0.2949,-0.2969,-0.2986,-0.2984,-0.2994,-0.2989,-0.2983,-0.2976,-0.2951,-0.2929,-0.2953,-0.2885,-0.2882,-0.2827,-0.2826,-0.2741,-0.2673,-0.2865,-0.2864,-0.2864,0,-0.2634,-0.2681,-0.274,-0.2815,-0.2832,-0.2867,-0.2917,-0.2962,-0.3001,-0.3012,-0.3024,-0.3021,-0.302,-0.2997,-0.2965,-0.2981,-0.2937,-0.2908,-0.2905,-0.2842,-0.2823,-0.2686,-0.2659,-0.2634,-0.2858,-0.2859,-0.2859,0,-0.2582,-0.2675,-0.2715,-0.2742,-0.2835,-0.2857,-0.29,-0.2955,-0.2989,-0.3016,-0.3031,-0.3033,-0.3028,-0.2989,-0.2947,-0.2952,-0.289,-0.2889,-0.2795,-0.2791,-0.2698,-0.2685,-0.263,-0.2842,-0.2842,-0.2843,-0.2843,0,-0.2569,-0.2597,-0.2689,-0.2707,-0.2749,-0.2822,-0.286,-0.2907,-0.2963,-0.2988,-0.303,-0.3033,-0.3025,-0.2999,-0.2946,-0.2862,-0.289,-0.2789,-0.277,-0.2705,-0.2695,-0.2651,-0.2667,-0.284,-0.2841,-0.2841,-0.2842,0,-0.2495,-0.2562,-0.261,-0.27,-0.2724,-0.2747,-0.2839,-0.2859,-0.2935,-0.2965,-0.2973,-0.3032,-0.2999,-0.2976,-0.2907,-0.2858,-0.2726,-0.2736,-0.2656,-0.2628,-0.2515,-0.2536,-0.2441,-0.2366,-0.2619,-0.2618,-0.2616,0,-0.2462,-0.248,-0.2576,-0.2591,-0.2625,-0.2678,-0.2705,-0.2814,-0.2841,-0.2947,-0.2943,-0.2963,-0.2949,-0.2861,-0.2767,-0.2663,-0.2643,-0.2524,-0.2517,-0.2488,-0.2497,-0.2501,-0.2446,-0.2402,-0.2399,-0.2396,-0.2394,0,-0.2383,-0.2418,-0.2449,-0.2494,-0.2523,-0.2576,-0.2628,-0.266,-0.2775,-0.2817,-0.2861,-0.2871,-0.2824,-0.2702,-0.2596,-0.2516,-0.2464,-0.2468,-0.2457,-0.2335,-0.2315,-0.224,-0.2467,-0.2371,-0.2374,-0.2375,-0.2377,-0.2377,-0.2298,-0.2301,-0.2343,-0.2369,-0.241,-0.2446,-0.243,-0.2505,-0.2553,-0.2582,-0.2691,-0.2677,-0.2631,-0.2479,-0.2402,-0.2253,-0.2288,-0.2181,-0.2211,-0.2219,-0.214,-0.2313,-0.219,-0.2191,-0.2192,-0.2193,-0.2194,0,-0.2186,-0.2197,-0.2214,-0.2243,-0.2227,-0.2302,-0.2342,-0.2301,-0.2293,-0.2378,-0.2395,-0.2414,-0.2304,-0.2265,-0.2135,-0.203,-0.1972,-0.1977,-0.1968,-0.1923,-0.208,-0.2065,-0.1885,-0.1885,-0.1885,-0.1885,-0.1885,-0.1885,-0.2123,-0.2093,-0.2108,-0.2046,-0.2052,-0.1982,-0.1967,-0.1944,-0.1968,-0.1967,-0.2012,-0.2114,-0.2106,-0.2187,-0.2034,-0.1929,-0.1863,-0.1808,-0.1811,-0.195,-0.1972,-0.1993,-0.1981,-0.1787,-0.1787,-0.1584,-0.1582,-0.1581]},{"header":{"parameterUnit":"m.s-1","parameterCategory":2,"la1":30.2991,"la2":30.254,"lo1":-89.0895,"lo2":-89.0444,"dy":0.0017,"dx":0.0017,"nx":28,"ny":28,"refTime":"2024-02-08T03:00:00:Z","depth":"0","parameterNumber":3,"parameterNumberName":"V-component_of_CURRENTS"},"data":[0,0,0,0,0,0,0,0,0,0,0,0,0,0,0,0,0,0,0,0,0,0,0,0,0,0,0,0,0,0,0,0,0,0,0,0,0,0,0,0,0,0,0,0,0,0,0,0,0,0,0,0,0,0,0,0,0,0,-0.0327,-0.0327,0,-0.0266,-0.0265,-0.0264,-0.0214,-0.0213,-0.0213,-0.0213,-0.0106,-0.0103,-0.0101,0,0,0,0,0,0,0,0,0,0,0,0,0,-0.0351,-0.0351,-0.0327,-0.0327,-0.0326,-0.0266,-0.0265,-0.0264,-0.0214,-0.0213,-0.0213,-0.0213,-0.0106,-0.0104,-0.0101,0,0,0,0,0,0,0,0,0,0,0,0,0,-0.0319,-0.0351,-0.0328,-0.0295,-0.0291,-0.0266,-0.0265,-0.0264,-0.0214,-0.0213,-0.0213,-0.0212,-0.0107,-0.0104,-0.01,-0.0089,0,0,-0.0089,-0.0087,0,0,0,0,0,0,0,0,-0.0321,-0.0318,-0.03,-0.0297,-0.0293,-0.0248,-0.0234,-0.0204,-0.0214,-0.0242,-0.0213,-0.0212,-0.015,-0.0143,-0.0132,-0.0084,-0.008,-0.0089,-0.0086,-0.0085,-0.0084,0,0,0,0,0,0,0,-0.0323,-0.032,-0.0302,-0.03,-0.0295,-0.0266,-0.0261,-0.0228,-0.0198,-0.024,-0.0236,-0.0232,-0.0148,-0.0135,-0.0129,-0.0078,-0.0089,-0.0085,-0.0083,-0.0082,-0.0012,-0.0012,0,0,0,0,0,0,-0.0337,-0.0323,-0.0304,-0.03,-0.0307,-0.0266,-0.0261,-0.0262,-0.02,-0.019,-0.0232,-0.0229,-0.0142,-0.0133,-0.0125,-0.0101,-0.0085,-0.0081,-0.0079,-0.0011,-0.0012,-0.0012,0,0,0,0,0,0,-0.0338,-0.0336,-0.0306,-0.031,-0.0305,-0.0267,-0.0269,-0.0261,-0.0248,-0.0195,-0.0184,-0.0227,-0.0141,-0.013,-0.0099,-0.0096,-0.008,-0.0076,-0.0011,-0.0012,-0.0012,-0.0057,0,0,0,0,0,0,-0.0339,-0.0337,-0.0343,-0.0312,-0.0305,-0.0298,-0.0269,-0.026,-0.0247,-0.0243,-0.0187,-0.0176,-0.014,-0.0105,-0.0095,-0.0091,-0.0073,-0.0011,-0.0011,-0.0012,-0.0055,-0.0059,-0.0063,0,0,0,0,0,-0.034,-0.0358,-0.0344,-0.0342,-0.0315,-0.0298,-0.0292,-0.0262,-0.0247,-0.0247,-0.0209,-0.0178,-0.0102,-0.0102,-0.0091,-0.0085,-0.001,-0.0011,-0.0012,-0.0054,-0.0059,-0.0063,0,0,0,0,0,0,-0.0372,-0.0354,-0.0338,-0.0349,-0.0326,-0.0291,-0.029,-0.0268,-0.0238,-0.0233,-0.0181,-0.0168,-0.0141,-0.0111,-0.0112,-0.0069,-0.0052,-0.005,-0.0088,-0.0092,-0.0095,-0.0104,-0.007,0,0,0,0,0,-0.0383,-0.0389,-0.0361,-0.0368,-0.0361,-0.0325,-0.0315,-0.0295,-0.0264,-0.025,-0.0211,-0.0171,-0.0137,-0.0113,-0.0082,-0.0056,-0.0015,-0.0047,-0.0051,-0.0054,-0.0054,0.0009,0.0012,-0.0015,-0.0015,-0.0015,0,0,-0.0397,-0.0387,-0.039,-0.0375,-0.0355,-0.0352,-0.0317,-0.0308,-0.0299,-0.0243,-0.0222,-0.0185,-0.0135,-0.0108,-0.0092,-0.008,-0.0026,-0.0055,-0.0058,-0.0056,0.0009,0.0012,0.0014,-0.0016,-0.0016,-0.0015,0,0,-0.0431,-0.0419,-0.0436,-0.0424,-0.0403,-0.0377,-0.0377,-0.0344,-0.0323,-0.0299,-0.0257,-0.0218,-0.0171,-0.0127,-0.01,-0.0106,-0.0053,-0.0101,-0.0117,-0.0056,-0.0053,-0.0049,0.0001,0.0009,-0.0097,-0.0097,-0.0097,0,-0.0448,-0.0466,-0.0438,-0.045,-0.0444,-0.0392,-0.0405,-0.0376,-0.0335,-0.0314,-0.0301,-0.0218,-0.0176,-0.0127,-0.013,-0.0112,-0.0075,-0.0103,-0.0059,-0.0055,-0.0051,-0.0,0.001,-0.0099,-0.0099,-0.0099,-0.0099,0,-0.0497,-0.0507,-0.0517,-0.0512,-0.0498,-0.0502,-0.0459,-0.0439,-0.0404,-0.0367,-0.0317,-0.0257,-0.0204,-0.0186,-0.0158,-0.011,-0.0094,-0.0076,-0.0047,-0.0051,0.0003,0.0014,-0.0103,-0.0102,-0.0101,-0.01,0,0,-0.0542,-0.0552,-0.0553,-0.0562,-0.0534,-0.0529,-0.0508,-0.047,-0.0451,-0.0397,-0.0363,-0.0297,-0.0254,-0.0222,-0.0174,-0.0119,-0.0059,-0.0091,-0.0087,-0.004,0.007,0.0115,0.0132,-0.0033,-0.0031,-0.003,0.0094,0,-0.0586,-0.0635,-0.0614,-0.0638,-0.0657,-0.0601,-0.0585,-0.0539,-0.0486,-0.0438,-0.0354,-0.0307,-0.0269,-0.0242,-0.018,-0.0088,-0.0032,-0.0094,0.0066,0.0071,0.0113,0.0146,0.0171,0.0287,0.0105,0.0107,0.0109,0,-0.0639,-0.0666,-0.0711,-0.0707,-0.0707,-0.0705,-0.0661,-0.0638,-0.0549,-0.0507,-0.0432,-0.0361,-0.0267,-0.024,-0.0076,-0.0118,-0.0034,0.0039,0.0046,0.0112,0.0137,0.0263,0.0314,0.0464,0.0126,0.0124,0.0123,0,-0.0697,-0.0724,-0.0763,-0.0767,-0.0756,-0.0753,-0.0734,-0.0664,-0.0641,-0.0545,-0.0511,-0.0387,-0.0319,-0.0196,-0.0042,-0.0057,0.014,0.0143,0.0264,0.0268,0.0335,0.0342,0.0554,0.0255,0.0255,0.0255,0.0254,0,-0.0755,-0.0782,-0.0799,-0.0824,-0.0858,-0.0818,-0.082,-0.0778,-0.071,-0.0677,-0.0554,-0.0496,-0.0304,-0.0166,-0.0041,0.0155,0.0148,0.0274,0.0312,0.0319,0.0322,0.0491,0.0541,0.0259,0.0258,0.0257,0.0257,0,-0.0811,-0.0821,-0.0872,-0.0886,-0.0893,-0.0916,-0.0898,-0.0891,-0.0815,-0.0766,-0.0737,-0.0562,-0.0369,-0.0173,0.005,0.0164,0.0438,0.0403,0.0395,0.0429,0.0673,0.0717,0.0961,0.1045,0.056,0.0562,0.0564,0,-0.0846,-0.0883,-0.0935,-0.0971,-0.0982,-0.1007,-0.1019,-0.096,-0.0941,-0.0808,-0.0786,-0.0582,-0.0428,-0.0072,0.0179,0.0435,0.0538,0.0597,0.0578,0.0711,0.0788,0.0821,0.0875,0.0648,0.065,0.0652,0.0653,0,-0.0911,-0.0929,-0.0973,-0.106,-0.1095,-0.1128,-0.1135,-0.1135,-0.1044,-0.0978,-0.0848,-0.0709,-0.0337,-0.0002,0.0349,0.049,0.0715,0.0642,0.0795,0.0894,0.0931,0.102,0.053,0.0669,0.0668,0.0666,0.0666,0.0665,-0.0951,-0.1004,-0.1067,-0.1142,-0.1191,-0.1234,-0.1252,-0.1225,-0.1187,-0.106,-0.0913,-0.0676,-0.0166,0.0347,0.053,0.0918,0.0869,0.1013,0.1061,0.1088,0.1163,0.0704,0.0872,0.0872,0.0871,0.0871,0.0871,0,-0.0999,-0.106,-0.1143,-0.1229,-0.1294,-0.1296,-0.1313,-0.1301,-0.1251,-0.1091,-0.0931,-0.0389,0.0105,0.0564,0.1131,0.133,0.1365,0.1417,0.1475,0.1513,0.1132,0.113,0.1344,0.1344,0.1344,0.1344,0.1343,0.1343,-0.1024,-0.1117,-0.1167,-0.1296,-0.135,-0.1397,-0.1402,-0.1362,-0.1254,-0.0983,-0.0684,-0.0431,0.0252,0.1193,0.1707,0.1734,0.1897,0.1872,0.1966,0.1699,0.1665,0.1632,0.1646,0.1964,0.1965,0.2331,0.2335,0.2338]}],[{"header":{"parameterUnit":"m.s-1","parameterCategory":2,"la1":30.2991,"la2":30.254,"lo1":-89.0895,"lo2":-89.0444,"dy":0.0017,"dx":0.0017,"nx":28,"ny":28,"refTime":"2024-02-08T03:00:00:Z","depth":"2","parameterNumber":2,"parameterNumberName":"U-component_of_CURRENTS"},"data":[0,0,0,0,0,0,0,0,0,0,0,0,0,0,0,0,0,0,0,0,0,0,0,0,0,0,0,0,0,0,0,0,0,0,0,0,0,0,0,0,0,0,0,0,0,0,0,0,0,0,0,0,0,0,0,0,0,0,-0.2349,-0.235,0,-0.2384,-0.2385,-0.2385,-0.2371,-0.2371,-0.237,-0.237,-0.2387,-0.2388,-0.2389,0,0,0,0,0,0,0,0,0,0,0,0,0,-0.2274,-0.2275,-0.2349,-0.235,-0.235,-0.2384,-0.2385,-0.2385,-0.2371,-0.2371,-0.237,-0.2369,-0.2387,-0.2388,-0.2389,0,0,0,0,0,0,0,0,0,0,0,0,0,-0.2305,-0.2275,-0.2349,-0.2349,-0.235,-0.2384,-0.2385,-0.2385,-0.2372,-0.2371,-0.237,-0.2369,-0.2386,-0.2388,-0.2389,-0.2417,0,0,-0.2394,-0.2395,0,0,0,0,0,0,0,0,-0.2304,-0.2308,-0.2349,-0.235,-0.235,-0.2374,-0.2364,-0.2396,-0.2372,-0.2361,-0.237,-0.2368,-0.2383,-0.2385,-0.2391,-0.2418,-0.2419,-0.2394,-0.2395,-0.2396,-0.2396,0,0,0,0,0,0,0,-0.2301,-0.2306,-0.2361,-0.235,-0.235,-0.2349,-0.2352,-0.237,-0.2375,-0.2362,-0.2362,-0.2369,-0.2383,-0.2389,-0.2391,-0.2419,-0.2394,-0.2395,-0.2396,-0.2397,-0.2466,-0.2466,0,0,0,0,0,0,-0.2303,-0.2304,-0.236,-0.2362,-0.2327,-0.2351,-0.2355,-0.2366,-0.2375,-0.2376,-0.237,-0.2369,-0.2387,-0.2389,-0.2392,-0.2429,-0.2396,-0.2397,-0.2398,-0.2465,-0.2466,-0.2467,0,0,0,0,0,0,-0.2301,-0.2307,-0.2358,-0.2335,-0.2342,-0.2354,-0.2366,-0.2367,-0.2375,-0.2382,-0.2382,-0.2377,-0.2386,-0.2389,-0.2407,-0.2429,-0.2398,-0.2399,-0.2464,-0.2465,-0.2466,-0.2502,0,0,0,0,0,0,-0.2299,-0.2307,-0.2314,-0.2336,-0.2343,-0.2385,-0.2367,-0.2368,-0.2382,-0.238,-0.2389,-0.2389,-0.2386,-0.2405,-0.2409,-0.2431,-0.2401,-0.2463,-0.2464,-0.2466,-0.25,-0.2504,-0.2508,0,0,0,0,0,-0.2296,-0.231,-0.2314,-0.232,-0.2353,-0.2386,-0.239,-0.2393,-0.2383,-0.2395,-0.2394,-0.2389,-0.2418,-0.2407,-0.2411,-0.2435,-0.2462,-0.2464,-0.2466,-0.2498,-0.2503,-0.2508,0,0,0,0,0,0,-0.2279,-0.2312,-0.2315,-0.2338,-0.2363,-0.2385,-0.2393,-0.2399,-0.2409,-0.2403,-0.2401,-0.2403,-0.2427,-0.2427,-0.2414,-0.2459,-0.2439,-0.2442,-0.2462,-0.2468,-0.2472,-0.2466,-0.2402,0,0,0,0,0,-0.2281,-0.2298,-0.2331,-0.2348,-0.236,-0.2378,-0.239,-0.2399,-0.2412,-0.2414,-0.2421,-0.2427,-0.2441,-0.2449,-0.246,-0.2488,-0.2469,-0.2505,-0.2509,-0.2513,-0.2511,-0.2499,-0.2502,-0.2473,-0.2473,-0.2473,0,0,-0.2277,-0.2298,-0.2306,-0.2345,-0.2359,-0.239,-0.2382,-0.2407,-0.2431,-0.2416,-0.2442,-0.2445,-0.2451,-0.2478,-0.2489,-0.2479,-0.2512,-0.2515,-0.2518,-0.2514,-0.2502,-0.2504,-0.2506,-0.2475,-0.2474,-0.2474,0,0,-0.2285,-0.2298,-0.2319,-0.2346,-0.238,-0.2397,-0.2408,-0.2438,-0.2446,-0.2478,-0.2469,-0.248,-0.2509,-0.2512,-0.2518,-0.2554,-0.2535,-0.2566,-0.2584,-0.2574,-0.2576,-0.2577,-0.2556,-0.2556,-0.2568,-0.2568,-0.2568,0,-0.2278,-0.2311,-0.233,-0.2364,-0.2384,-0.2403,-0.2434,-0.2455,-0.2487,-0.2497,-0.2489,-0.252,-0.2524,-0.2548,-0.2559,-0.2564,-0.2551,-0.2564,-0.2578,-0.2579,-0.258,-0.2558,-0.2557,-0.257,-0.257,-0.2569,-0.2569,0,-0.2308,-0.2336,-0.235,-0.2398,-0.2425,-0.2453,-0.2489,-0.2514,-0.2525,-0.2542,-0.2568,-0.2568,-0.2583,-0.2591,-0.2588,-0.2604,-0.2591,-0.2584,-0.2562,-0.2585,-0.2561,-0.2559,-0.2573,-0.2572,-0.2571,-0.2571,0,0,-0.2281,-0.2356,-0.236,-0.2385,-0.2444,-0.2467,-0.2513,-0.2555,-0.2574,-0.26,-0.2618,-0.2641,-0.2634,-0.2639,-0.2635,-0.2627,-0.2621,-0.2612,-0.261,-0.2586,-0.2591,-0.2534,-0.2526,-0.2618,-0.2618,-0.2618,-0.2571,0,-0.2294,-0.2353,-0.2394,-0.2444,-0.2472,-0.2513,-0.2551,-0.2592,-0.2616,-0.2639,-0.2642,-0.2657,-0.2656,-0.2656,-0.2653,-0.2632,-0.2618,-0.2634,-0.2576,-0.2574,-0.2517,-0.2523,-0.2354,-0.2293,-0.2568,-0.2568,-0.2568,0,-0.2304,-0.2342,-0.2394,-0.246,-0.2476,-0.251,-0.2562,-0.2604,-0.2647,-0.2664,-0.2684,-0.2686,-0.2692,-0.2674,-0.2652,-0.2664,-0.263,-0.2606,-0.2603,-0.2535,-0.2514,-0.2316,-0.2279,-0.2564,-0.2564,-0.2565,-0.2565,0,-0.2256,-0.2338,-0.2373,-0.2397,-0.2479,-0.2504,-0.2545,-0.26,-0.2634,-0.2672,-0.2692,-0.2701,-0.2704,-0.2673,-0.2641,-0.2645,-0.2597,-0.2594,-0.2508,-0.2504,-0.2339,-0.232,-0.2561,-0.2561,-0.2561,-0.2561,-0.2561,0,-0.2242,-0.2268,-0.235,-0.2367,-0.2407,-0.2473,-0.2513,-0.2561,-0.2619,-0.2644,-0.2694,-0.2701,-0.2704,-0.2686,-0.2643,-0.257,-0.26,-0.2505,-0.2487,-0.2348,-0.2331,-0.2551,-0.2551,-0.2559,-0.256,-0.256,-0.256,0,-0.2177,-0.2235,-0.2277,-0.2359,-0.2384,-0.2407,-0.2496,-0.2515,-0.2594,-0.2627,-0.2639,-0.2702,-0.2679,-0.2667,-0.2613,-0.2569,-0.2501,-0.2463,-0.2298,-0.2262,-0.2413,-0.2415,-0.2361,-0.2358,-0.2356,-0.2354,-0.2353,0,-0.2147,-0.2161,-0.2249,-0.2262,-0.2295,-0.2347,-0.2371,-0.2477,-0.2501,-0.2609,-0.2603,-0.2635,-0.2621,-0.2551,-0.2466,-0.2378,-0.2437,-0.2172,-0.2148,-0.2404,-0.2392,-0.2397,-0.2402,-0.1941,-0.1936,-0.1932,-0.1929,0,-0.2074,-0.2107,-0.2133,-0.2172,-0.22,-0.2247,-0.2295,-0.2322,-0.2431,-0.2472,-0.2512,-0.2522,-0.2488,-0.2332,-0.2246,-0.2166,-0.2177,-0.2092,-0.2384,-0.203,-0.2007,-0.1996,-0.2015,-0.1895,-0.1898,-0.1901,-0.1903,-0.1904,-0.1999,-0.1999,-0.2034,-0.2057,-0.2094,-0.212,-0.2102,-0.2166,-0.2204,-0.2226,-0.2332,-0.2284,-0.2264,-0.205,-0.1933,-0.1837,-0.198,-0.1878,-0.1889,-0.1905,-0.1878,-0.1854,-0.1706,-0.1709,-0.171,-0.1712,-0.1714,0,-0.1895,-0.1903,-0.1914,-0.1935,-0.1915,-0.1989,-0.2015,-0.1968,-0.1949,-0.2007,-0.202,-0.1838,-0.1754,-0.1729,-0.1543,-0.1503,-0.1483,-0.1426,-0.1402,-0.1437,-0.1468,-0.1418,-0.1125,-0.1123,-0.1121,-0.1119,0,0,-0.1837,-0.1803,-0.1811,-0.1745,-0.1752,-0.1681,-0.1663,-0.1624,-0.1623,-0.1562,-0.1537,-0.1676,-0.1708,-0.1426,-0.1349,-0.1211,-0.1309,-0.1149,-0.1625,-0.1633,-0.1662,-0.1734,-0.1698,0,0,0,0,0]},{"header":{"parameterUnit":"m.s-1","parameterCategory":2,"la1":30.2991,"la2":30.254,"lo1":-89.0895,"lo2":-89.0444,"dy":0.0017,"dx":0.0017,"nx":28,"ny":28,"refTime":"2024-02-08T03:00:00:Z","depth":"2","parameterNumber":3,"parameterNumberName":"V-component_of_CURRENTS"},"data":[0,0,0,0,0,0,0,0,0,0,0,0,0,0,0,0,0,0,0,0,0,0,0,0,0,0,0,0,0,0,0,0,0,0,0,0,0,0,0,0,0,0,0,0,0,0,0,0,0,0,0,0,0,0,0,0,0,0,-0.0324,-0.0324,0,-0.027,-0.0269,-0.0269,-0.0223,-0.0223,-0.0223,-0.0222,-0.0127,-0.0125,-0.0123,0,0,0,0,0,0,0,0,0,0,0,0,0,-0.0343,-0.0343,-0.0324,-0.0324,-0.0323,-0.027,-0.0269,-0.0269,-0.0224,-0.0223,-0.0223,-0.0222,-0.0128,-0.0125,-0.0123,0,0,0,0,0,0,0,0,0,0,0,0,0,-0.0315,-0.0343,-0.0324,-0.0295,-0.0292,-0.027,-0.0269,-0.0268,-0.0224,-0.0223,-0.0222,-0.0222,-0.0129,-0.0126,-0.0122,-0.0113,0,0,-0.0112,-0.0111,0,0,0,0,0,0,0,0,-0.0317,-0.0314,-0.03,-0.0297,-0.0294,-0.0254,-0.0241,-0.0215,-0.0224,-0.0248,-0.0222,-0.0222,-0.0167,-0.0161,-0.0151,-0.0109,-0.0105,-0.0112,-0.011,-0.0109,-0.0108,0,0,0,0,0,0,0,-0.0319,-0.0316,-0.0302,-0.03,-0.0296,-0.0269,-0.0265,-0.0236,-0.021,-0.0246,-0.0243,-0.0239,-0.0165,-0.0154,-0.0148,-0.0104,-0.0112,-0.0109,-0.0107,-0.0106,-0.0049,-0.0049,0,0,0,0,0,0,-0.0331,-0.0318,-0.0303,-0.03,-0.0306,-0.027,-0.0265,-0.0266,-0.0211,-0.0203,-0.024,-0.0237,-0.016,-0.0152,-0.0144,-0.0126,-0.0109,-0.0106,-0.0104,-0.0048,-0.0049,-0.005,0,0,0,0,0,0,-0.0332,-0.0331,-0.0305,-0.0308,-0.0304,-0.027,-0.0272,-0.0266,-0.0254,-0.0207,-0.0197,-0.0235,-0.0159,-0.0149,-0.0122,-0.0122,-0.0104,-0.0101,-0.0048,-0.0049,-0.0049,-0.0091,0,0,0,0,0,0,-0.0333,-0.0331,-0.0337,-0.031,-0.0304,-0.0299,-0.0273,-0.0265,-0.0253,-0.0249,-0.02,-0.019,-0.0158,-0.0127,-0.0118,-0.0117,-0.0099,-0.0047,-0.0048,-0.0049,-0.0089,-0.0093,-0.0097,0,0,0,0,0,-0.0334,-0.0351,-0.0338,-0.0336,-0.0313,-0.03,-0.0295,-0.0267,-0.0254,-0.0254,-0.0219,-0.0192,-0.0126,-0.0125,-0.0115,-0.0112,-0.0047,-0.0048,-0.0049,-0.0088,-0.0092,-0.0097,0,0,0,0,0,0,-0.0362,-0.0347,-0.0333,-0.0344,-0.0324,-0.0293,-0.0293,-0.0273,-0.0246,-0.0242,-0.0195,-0.0183,-0.0161,-0.0134,-0.0134,-0.01,-0.0083,-0.0082,-0.0116,-0.012,-0.0124,-0.013,-0.0096,0,0,0,0,0,-0.0372,-0.0378,-0.0355,-0.0362,-0.0356,-0.0324,-0.0315,-0.0297,-0.027,-0.0258,-0.0223,-0.0188,-0.0158,-0.0138,-0.0111,-0.009,-0.0052,-0.0083,-0.0087,-0.009,-0.0089,-0.0032,-0.003,-0.0053,-0.0053,-0.0053,0,0,-0.0385,-0.0376,-0.038,-0.0368,-0.035,-0.035,-0.0317,-0.031,-0.0304,-0.0252,-0.0235,-0.0201,-0.0158,-0.0135,-0.0123,-0.0111,-0.0065,-0.0092,-0.0094,-0.0092,-0.0033,-0.0031,-0.0028,-0.0053,-0.0053,-0.0053,0,0,-0.0417,-0.0406,-0.0423,-0.0413,-0.0395,-0.0373,-0.0373,-0.0345,-0.0326,-0.0307,-0.0268,-0.0234,-0.0193,-0.0156,-0.0132,-0.014,-0.0091,-0.0137,-0.0152,-0.0097,-0.0094,-0.0091,-0.0044,-0.0037,-0.0134,-0.0134,-0.0134,0,-0.0433,-0.0451,-0.0425,-0.0438,-0.0434,-0.0387,-0.0401,-0.0376,-0.034,-0.0323,-0.0309,-0.0238,-0.02,-0.0159,-0.0162,-0.0146,-0.0112,-0.0138,-0.01,-0.0097,-0.0093,-0.0045,-0.0037,-0.0136,-0.0136,-0.0135,-0.0135,0,-0.0479,-0.049,-0.0499,-0.0497,-0.0487,-0.0492,-0.0455,-0.0438,-0.0407,-0.0375,-0.0333,-0.0277,-0.0231,-0.0215,-0.0189,-0.0147,-0.0131,-0.0115,-0.0088,-0.0093,-0.0043,-0.0033,-0.0139,-0.0138,-0.0138,-0.0137,0,0,-0.052,-0.0532,-0.0534,-0.0545,-0.0521,-0.0519,-0.0503,-0.0473,-0.0458,-0.0409,-0.0381,-0.0321,-0.0281,-0.0253,-0.0209,-0.0157,-0.0101,-0.0129,-0.0125,-0.0081,0.0017,0.0057,0.0072,-0.0078,-0.0076,-0.0075,0.004,0,-0.0562,-0.061,-0.0592,-0.0619,-0.0639,-0.0591,-0.0579,-0.0541,-0.0494,-0.0453,-0.0376,-0.0336,-0.0298,-0.0273,-0.0215,-0.0129,-0.0077,-0.0134,0.0013,0.0018,0.0056,0.0084,0.0051,0.0153,0.005,0.0051,0.0053,0,-0.0611,-0.0637,-0.0683,-0.0686,-0.0688,-0.0689,-0.0655,-0.0637,-0.0559,-0.0522,-0.0455,-0.039,-0.0303,-0.0275,-0.0122,-0.0161,-0.008,-0.0012,-0.0005,0.0055,0.0077,0.0143,0.0175,0.007,0.0068,0.0067,0.0066,0,-0.0663,-0.0694,-0.0733,-0.0739,-0.0735,-0.0736,-0.0722,-0.0662,-0.0645,-0.056,-0.0532,-0.0418,-0.0355,-0.0239,-0.0093,-0.0105,0.0078,0.0081,0.0193,0.0196,0.021,0.0212,0.0186,0.0185,0.0185,0.0185,0.0184,0,-0.0718,-0.0747,-0.0766,-0.0792,-0.0828,-0.0796,-0.0804,-0.0769,-0.0711,-0.0685,-0.0574,-0.0523,-0.0342,-0.0214,-0.0094,0.0089,0.0082,0.0202,0.0236,0.0193,0.0193,0.0151,0.0145,0.0189,0.0188,0.0187,0.0187,0,-0.0769,-0.0781,-0.0833,-0.0852,-0.086,-0.0886,-0.0878,-0.0875,-0.0809,-0.077,-0.0744,-0.0587,-0.0408,-0.0225,-0.0015,0.0094,0.0256,0.0317,0.0254,0.0279,0.0335,0.0326,0.0458,0.046,0.0463,0.0464,0.0466,0,-0.0801,-0.0837,-0.0891,-0.0928,-0.0942,-0.097,-0.0985,-0.0937,-0.0925,-0.081,-0.0792,-0.0607,-0.0468,-0.0137,0.0094,0.0334,0.0321,0.0434,0.0411,0.0347,0.0367,0.0354,0.0342,0.0409,0.041,0.041,0.0411,0,-0.0861,-0.088,-0.0925,-0.1008,-0.1046,-0.1083,-0.1095,-0.11,-0.1023,-0.0967,-0.0853,-0.073,-0.0392,-0.0109,0.0216,0.0339,0.0397,0.0458,0.0427,0.0343,0.0311,0.0326,0.0315,0.0418,0.0417,0.0417,0.0416,0.0416,-0.0899,-0.0949,-0.1011,-0.1085,-0.1135,-0.1179,-0.1199,-0.1182,-0.1153,-0.1041,-0.0913,-0.0702,-0.0406,0.0058,0.029,0.0501,0.0487,0.0531,0.0525,0.0519,0.0491,0.0464,0.0594,0.0595,0.0595,0.0595,0.0595,0,-0.0943,-0.1001,-0.108,-0.1165,-0.1228,-0.1234,-0.1257,-0.1243,-0.1203,-0.1065,-0.0924,-0.06,-0.0262,0.0037,0.0385,0.0593,0.056,0.0615,0.0535,0.0527,0.0521,0.0489,0.0594,0.0595,0.0596,0.0596,0,0,-0.0967,-0.1052,-0.1099,-0.1222,-0.1277,-0.1325,-0.1332,-0.1291,-0.1195,-0.1055,-0.0886,-0.0644,-0.0264,-0.0015,0.0255,0.0438,0.042,0.0444,0.0421,0.0286,0.0277,0.0449,0.039,0,0,0,0,0]}],[{"header":{"parameterUnit":"m.s-1","parameterCategory":2,"la1":30.2991,"la2":30.254,"lo1":-89.0895,"lo2":-89.0444,"dy":0.0017,"dx":0.0017,"nx":28,"ny":28,"refTime":"2024-02-08T03:00:00:Z","depth":"4","parameterNumber":2,"parameterNumberName":"U-component_of_CURRENTS"},"data":[0,0,0,0,0,0,0,0,0,0,0,0,0,0,0,0,0,0,0,0,0,0,0,0,0,0,0,0,0,0,0,0,0,0,0,0,0,0,0,0,0,0,0,0,0,0,0,0,0,0,0,0,0,0,0,0,0,0,-0.1596,-0.1597,0,-0.1658,-0.1659,-0.1659,-0.1699,-0.1699,-0.1699,-0.17,-0.177,-0.1771,-0.1773,0,0,0,0,0,0,0,0,0,0,0,0,0,-0.151,-0.1511,-0.1596,-0.1597,-0.1598,-0.1658,-0.1659,-0.1659,-0.1699,-0.1699,-0.1699,-0.17,-0.1769,-0.1771,-0.1773,0,0,0,0,0,0,0,0,0,0,0,0,0,-0.1555,-0.1511,-0.1596,-0.1626,-0.1629,-0.1658,-0.1659,-0.166,-0.1698,-0.1699,-0.17,-0.17,-0.1769,-0.1771,-0.1773,-0.1776,0,0,-0.178,-0.1781,0,0,0,0,0,0,0,0,-0.1553,-0.1558,-0.162,-0.1624,-0.1628,-0.1673,-0.1654,-0.1699,-0.1698,-0.167,-0.17,-0.17,-0.1739,-0.1743,-0.1752,-0.1779,-0.1782,-0.178,-0.1782,-0.1783,-0.1783,0,0,0,0,0,0,0,-0.1549,-0.1556,-0.1619,-0.1621,-0.1626,-0.1636,-0.1643,-0.1663,-0.17,-0.1673,-0.1676,-0.1686,-0.1741,-0.1749,-0.1754,-0.1783,-0.178,-0.1782,-0.1784,-0.1785,-0.1878,-0.1879,0,0,0,0,0,0,-0.1545,-0.1553,-0.1617,-0.1621,-0.1593,-0.1637,-0.1645,-0.1656,-0.1699,-0.1707,-0.1685,-0.1687,-0.1745,-0.1751,-0.1756,-0.1828,-0.1783,-0.1785,-0.1786,-0.1877,-0.1878,-0.188,0,0,0,0,0,0,-0.1543,-0.155,-0.1614,-0.1589,-0.1599,-0.1638,-0.1651,-0.1657,-0.1695,-0.1709,-0.1716,-0.1719,-0.1746,-0.1753,-0.1797,-0.1828,-0.1786,-0.1788,-0.1876,-0.1877,-0.1879,-0.1929,0,0,0,0,0,0,-0.154,-0.1549,-0.1569,-0.1589,-0.16,-0.1651,-0.165,-0.1658,-0.1698,-0.1703,-0.174,-0.1745,-0.1747,-0.1793,-0.1799,-0.1831,-0.179,-0.1874,-0.1876,-0.1878,-0.1926,-0.1932,-0.1937,0,0,0,0,0,-0.1537,-0.1557,-0.1569,-0.1578,-0.1622,-0.1652,-0.1659,-0.1687,-0.17,-0.1722,-0.1746,-0.1746,-0.181,-0.1796,-0.1802,-0.1836,-0.1873,-0.1876,-0.1878,-0.1923,-0.1931,-0.1937,0,0,0,0,0,0,-0.1532,-0.1564,-0.1578,-0.1608,-0.1638,-0.166,-0.1685,-0.1704,-0.174,-0.1751,-0.1762,-0.1769,-0.1818,-0.1819,-0.1803,-0.1867,-0.1841,-0.1845,-0.1873,-0.188,-0.1886,-0.1878,-0.1792,0,0,0,0,0,-0.1539,-0.1564,-0.1594,-0.1621,-0.1637,-0.1667,-0.1688,-0.171,-0.1737,-0.1755,-0.1782,-0.1806,-0.1829,-0.1849,-0.1868,-0.1906,-0.1887,-0.193,-0.1936,-0.1941,-0.1939,-0.1935,-0.1939,-0.1888,-0.1888,-0.1888,0,0,-0.1545,-0.1567,-0.1582,-0.1623,-0.1646,-0.1678,-0.1682,-0.1723,-0.1756,-0.1757,-0.1816,-0.1832,-0.1843,-0.1884,-0.1906,-0.1893,-0.1946,-0.1944,-0.1948,-0.1943,-0.1938,-0.1942,-0.1947,-0.189,-0.1889,-0.1889,0,0,-0.156,-0.1589,-0.1613,-0.1642,-0.1686,-0.1704,-0.1723,-0.1765,-0.1793,-0.1844,-0.185,-0.1882,-0.1928,-0.1936,-0.1945,-0.1993,-0.1976,-0.2009,-0.2036,-0.2033,-0.2037,-0.204,-0.2022,-0.2023,-0.2013,-0.2013,-0.2013,0,-0.1569,-0.1601,-0.1626,-0.1658,-0.1685,-0.172,-0.1753,-0.1785,-0.1839,-0.1862,-0.1873,-0.1933,-0.1947,-0.1981,-0.2,-0.2006,-0.1997,-0.201,-0.204,-0.2043,-0.2045,-0.2025,-0.2026,-0.2016,-0.2016,-0.2015,-0.2015,0,-0.1593,-0.1632,-0.1649,-0.1698,-0.1733,-0.1768,-0.1811,-0.1855,-0.1894,-0.192,-0.1976,-0.1992,-0.2024,-0.2038,-0.2038,-0.2069,-0.2054,-0.2046,-0.202,-0.2053,-0.203,-0.203,-0.202,-0.2019,-0.2018,-0.2017,0,0,-0.1573,-0.1651,-0.166,-0.1691,-0.1758,-0.1784,-0.1846,-0.1898,-0.1935,-0.1989,-0.2027,-0.2071,-0.2082,-0.2091,-0.2097,-0.2098,-0.211,-0.2088,-0.2086,-0.2065,-0.2097,-0.1976,-0.1963,-0.2113,-0.2113,-0.2113,-0.2073,0,-0.1584,-0.1642,-0.1685,-0.1747,-0.1776,-0.1833,-0.1881,-0.1938,-0.1985,-0.2031,-0.2056,-0.2095,-0.2102,-0.212,-0.2127,-0.2116,-0.2112,-0.2121,-0.2071,-0.2069,-0.1954,-0.196,-0.2114,-0.2073,-0.2072,-0.2072,-0.2072,0,-0.1585,-0.1625,-0.1685,-0.1764,-0.1783,-0.1831,-0.1908,-0.1959,-0.2027,-0.2063,-0.2108,-0.2127,-0.2154,-0.2146,-0.2144,-0.2154,-0.2131,-0.2114,-0.2112,-0.1978,-0.1947,-0.2033,-0.2071,-0.2071,-0.2071,-0.2071,-0.2071,0,-0.1534,-0.1623,-0.167,-0.1699,-0.1792,-0.1836,-0.1891,-0.1968,-0.2011,-0.2083,-0.2115,-0.2149,-0.2172,-0.2157,-0.2142,-0.2147,-0.2118,-0.2114,-0.1979,-0.197,-0.2071,-0.2068,-0.2097,-0.2097,-0.2097,-0.2097,-0.2097,0,-0.1506,-0.1548,-0.1655,-0.1677,-0.1737,-0.1814,-0.1879,-0.1942,-0.2018,-0.2049,-0.2127,-0.2139,-0.2179,-0.2173,-0.2144,-0.2055,-0.212,-0.1973,-0.1949,-0.2093,-0.2093,-0.207,-0.2067,-0.2095,-0.2096,-0.2096,-0.2096,0,-0.1434,-0.1508,-0.1566,-0.1675,-0.1714,-0.1756,-0.187,-0.1899,-0.1998,-0.204,-0.2064,-0.214,-0.2127,-0.2141,-0.211,-0.2044,-0.1976,-0.1928,-0.2076,-0.2063,-0.1828,-0.1829,-0.1759,-0.1755,-0.1751,-0.1747,-0.1745,0,-0.1398,-0.1421,-0.1548,-0.1577,-0.1631,-0.171,-0.175,-0.187,-0.1894,-0.201,-0.2001,-0.205,-0.2076,-0.1939,-0.1968,-0.1895,-0.1876,-0.183,-0.183,-0.1809,-0.1793,-0.18,-0.1806,-0.1738,-0.1737,-0.1736,-0.1735,0,-0.1318,-0.1378,-0.1421,-0.1489,-0.1545,-0.1602,-0.167,-0.1682,-0.1797,-0.1905,-0.1889,-0.188,-0.1866,-0.184,-0.1807,-0.1754,-0.1852,-0.1789,-0.1797,-0.1795,-0.1782,-0.1772,-0.1783,-0.1721,-0.1723,-0.1725,-0.1726,0,-0.1254,-0.1265,-0.1331,-0.1375,-0.1443,-0.1462,-0.1524,-0.1547,-0.16,-0.173,-0.1711,-0.1767,-0.1841,-0.1765,-0.1723,-0.1674,-0.1644,-0.1585,-0.1603,-0.1619,-0.1591,-0.1555,-0.1391,0,0,0,0,0,-0.1179,-0.1175,-0.1207,-0.1248,-0.1308,-0.1348,-0.1446,-0.1506,-0.1621,-0.1565,-0.164,-0.1617,-0.1581,-0.1608,-0.1523,-0.1644,-0.1644,-0.1538,-0.1586,-0.1645,-0.1661,-0.1641,0,0,0,0,0,0,-0.1127,-0.1152,-0.1162,-0.1129,-0.1126,-0.1181,-0.1239,-0.1322,-0.1304,-0.1427,-0.1414,-0.1505,-0.149,-0.1595,-0.1483,-0.1488,-0.1483,-0.1577,-0.1572,-0.1636,-0.165,-0.1663,-0.1648,0,0,0,0,0]},{"header":{"parameterUnit":"m.s-1","parameterCategory":2,"la1":30.2991,"la2":30.254,"lo1":-89.0895,"lo2":-89.0444,"dy":0.0017,"dx":0.0017,"nx":28,"ny":28,"refTime":"2024-02-08T03:00:00:Z","depth":"4","parameterNumber":3,"parameterNumberName":"V-component_of_CURRENTS"},"data":[0,0,0,0,0,0,0,0,0,0,0,0,0,0,0,0,0,0,0,0,0,0,0,0,0,0,0,0,0,0,0,0,0,0,0,0,0,0,0,0,0,0,0,0,0,0,0,0,0,0,0,0,0,0,0,0,0,0,-0.025,-0.025,0,-0.0219,-0.0219,-0.0219,-0.0192,-0.0192,-0.0191,-0.0191,-0.0128,-0.0127,-0.0125,0,0,0,0,0,0,0,0,0,0,0,0,0,-0.0253,-0.0253,-0.025,-0.025,-0.0249,-0.022,-0.0219,-0.0219,-0.0192,-0.0192,-0.0191,-0.0191,-0.0129,-0.0127,-0.0125,0,0,0,0,0,0,0,0,0,0,0,0,0,-0.0239,-0.0253,-0.025,-0.0233,-0.0232,-0.022,-0.0219,-0.0218,-0.0192,-0.0192,-0.0191,-0.0191,-0.0129,-0.0127,-0.0125,-0.0117,0,0,-0.0118,-0.0117,0,0,0,0,0,0,0,0,-0.024,-0.0239,-0.0236,-0.0235,-0.0233,-0.021,-0.0197,-0.0183,-0.0192,-0.0206,-0.0191,-0.0191,-0.0154,-0.0149,-0.0143,-0.0114,-0.0112,-0.0118,-0.0117,-0.0116,-0.0115,0,0,0,0,0,0,0,-0.0241,-0.024,-0.0237,-0.0236,-0.0234,-0.0216,-0.0214,-0.0194,-0.018,-0.0205,-0.0203,-0.0201,-0.0152,-0.0145,-0.0141,-0.0111,-0.0118,-0.0116,-0.0115,-0.0114,-0.0082,-0.0083,0,0,0,0,0,0,-0.0249,-0.0241,-0.0238,-0.0236,-0.0237,-0.0217,-0.0214,-0.0217,-0.0181,-0.0176,-0.0202,-0.02,-0.0149,-0.0144,-0.0139,-0.0133,-0.0116,-0.0114,-0.0112,-0.0082,-0.0083,-0.0083,0,0,0,0,0,0,-0.0249,-0.0249,-0.0239,-0.0238,-0.0236,-0.0218,-0.022,-0.0216,-0.0212,-0.018,-0.0173,-0.0202,-0.0149,-0.0142,-0.0126,-0.013,-0.0113,-0.011,-0.0081,-0.0082,-0.0083,-0.0118,0,0,0,0,0,0,-0.0249,-0.0249,-0.0257,-0.0239,-0.0236,-0.0239,-0.022,-0.0216,-0.0212,-0.021,-0.0177,-0.0171,-0.0148,-0.013,-0.0124,-0.0127,-0.0109,-0.0081,-0.0082,-0.0083,-0.0116,-0.0119,-0.0123,0,0,0,0,0,-0.025,-0.0264,-0.0257,-0.0257,-0.0246,-0.0239,-0.0236,-0.0221,-0.0212,-0.0215,-0.0192,-0.0172,-0.0132,-0.0128,-0.0121,-0.0124,-0.008,-0.0081,-0.0082,-0.0114,-0.0119,-0.0122,0,0,0,0,0,0,-0.0269,-0.0262,-0.0254,-0.0266,-0.0255,-0.0235,-0.0239,-0.0226,-0.0211,-0.0209,-0.0176,-0.0168,-0.0157,-0.0138,-0.0135,-0.0119,-0.0104,-0.0104,-0.013,-0.0134,-0.0138,-0.0142,-0.0107,0,0,0,0,0,-0.0277,-0.0285,-0.0272,-0.028,-0.0278,-0.0259,-0.0255,-0.0244,-0.0227,-0.022,-0.0198,-0.0176,-0.0157,-0.0144,-0.0127,-0.0115,-0.0084,-0.0114,-0.0117,-0.012,-0.012,-0.0075,-0.0074,-0.0087,-0.0087,-0.0087,0,0,-0.0288,-0.0284,-0.0289,-0.0285,-0.0275,-0.028,-0.0256,-0.0255,-0.0255,-0.0216,-0.0212,-0.0188,-0.0158,-0.0147,-0.014,-0.0129,-0.0102,-0.0121,-0.0124,-0.0122,-0.0076,-0.0074,-0.0073,-0.0088,-0.0087,-0.0087,0,0,-0.0313,-0.0309,-0.0324,-0.0321,-0.0313,-0.0299,-0.0302,-0.0286,-0.0276,-0.0267,-0.024,-0.0218,-0.0194,-0.0168,-0.0152,-0.0163,-0.0125,-0.0163,-0.0177,-0.0134,-0.0132,-0.013,-0.0094,-0.0089,-0.0161,-0.0161,-0.0161,0,-0.0325,-0.0343,-0.0327,-0.034,-0.0343,-0.0312,-0.0328,-0.0313,-0.0293,-0.0284,-0.0274,-0.0229,-0.0202,-0.0177,-0.018,-0.0169,-0.0142,-0.0163,-0.0137,-0.0135,-0.0132,-0.0095,-0.0089,-0.0163,-0.0162,-0.0162,-0.0162,0,-0.0361,-0.0376,-0.0385,-0.039,-0.0389,-0.0398,-0.0377,-0.037,-0.0353,-0.0331,-0.0308,-0.0267,-0.0237,-0.0226,-0.0205,-0.0177,-0.0163,-0.0149,-0.0125,-0.0132,-0.0094,-0.0087,-0.0165,-0.0165,-0.0164,-0.0164,0,0,-0.0387,-0.0408,-0.0411,-0.0426,-0.0419,-0.0423,-0.042,-0.0407,-0.0403,-0.037,-0.0356,-0.0315,-0.0284,-0.0265,-0.023,-0.0189,-0.0145,-0.0164,-0.016,-0.0125,-0.0053,-0.0045,-0.0036,-0.0125,-0.0124,-0.0123,-0.0035,0,-0.042,-0.0464,-0.0458,-0.0491,-0.0512,-0.0486,-0.0486,-0.0467,-0.0439,-0.0416,-0.0358,-0.0334,-0.0301,-0.0285,-0.0238,-0.0168,-0.0127,-0.0171,-0.0054,-0.005,-0.0039,-0.0027,-0.0119,-0.0029,-0.0027,-0.0026,-0.0025,0,-0.0455,-0.0482,-0.0528,-0.0548,-0.0553,-0.0565,-0.0558,-0.0552,-0.0504,-0.048,-0.0434,-0.0386,-0.032,-0.0293,-0.0171,-0.02,-0.0134,-0.0077,-0.0072,-0.0046,-0.0028,-0.0019,-0.0011,-0.0012,-0.0013,-0.0014,-0.0015,0,-0.0488,-0.0526,-0.0568,-0.0578,-0.0593,-0.0606,-0.0607,-0.0576,-0.0572,-0.0518,-0.0502,-0.0415,-0.0368,-0.0273,-0.0154,-0.016,-0.0016,-0.0009,0.0061,0.0062,0.0044,0.0041,0.0074,0.0074,0.0074,0.0074,0.0073,0,-0.0521,-0.0554,-0.0593,-0.0617,-0.0663,-0.0652,-0.0678,-0.0661,-0.0631,-0.0619,-0.054,-0.0506,-0.0359,-0.0259,-0.0158,-0.0022,-0.0016,0.0064,0.0089,0.0026,0.002,0.005,0.0046,0.0077,0.0076,0.0076,0.0075,0,-0.0546,-0.057,-0.0626,-0.0666,-0.0683,-0.0715,-0.074,-0.0747,-0.0712,-0.0692,-0.0676,-0.0562,-0.0423,-0.0278,-0.0107,-0.0028,0.0099,0.0142,0.0064,0.0082,0.0147,0.014,0.0229,0.023,0.0231,0.0232,0.0232,0,-0.0561,-0.0594,-0.067,-0.0711,-0.0736,-0.0781,-0.0807,-0.0794,-0.0794,-0.0725,-0.0712,-0.0579,-0.0486,-0.0239,-0.0091,0.0112,0.0135,0.0196,0.0173,0.015,0.0165,0.0157,0.0149,0.0234,0.0234,0.0234,0.0235,0,-0.0589,-0.0621,-0.0668,-0.0756,-0.0807,-0.0856,-0.0888,-0.0891,-0.0854,-0.0829,-0.0724,-0.0585,-0.0423,-0.0232,-0.0067,0.0071,0.0156,0.0206,0.0205,0.0184,0.0157,0.0169,0.016,0.0238,0.0237,0.0237,0.0237,0,-0.0608,-0.0651,-0.0717,-0.0789,-0.0861,-0.0904,-0.0919,-0.0901,-0.089,-0.0801,-0.0768,-0.0589,-0.0478,-0.0253,-0.0109,0.004,0.0071,0.0105,0.0109,0.0108,0.0046,-0.0009,0.0049,0,0,0,0,0,-0.0619,-0.0668,-0.0743,-0.0821,-0.0892,-0.0927,-0.0957,-0.0954,-0.0919,-0.0848,-0.0802,-0.0648,-0.0401,-0.0298,-0.0146,-0.0104,0.0084,0.0075,0.0121,0.0255,0.0252,0.0201,0,0,0,0,0,0,-0.0627,-0.0699,-0.074,-0.083,-0.0883,-0.0948,-0.0968,-0.0944,-0.0895,-0.0839,-0.0708,-0.0623,-0.0388,-0.0485,-0.0147,-0.0102,-0.0055,0.0194,0.0197,0.0258,0.0254,0.0251,0.0197,0,0,0,0,0]}]]